Flag for Cameroon Weather past 2 weeks in Douala, Cameroon

Now
86 °F

Partly sunny.


Feels Like: 97 °F
Forecast: 76 / 93 °F
Wind: 12 mph from Southwest

Location: Douala Obs.

Current Time: Apr 1, 2015 at 6:14:54 PM

Latest Report: Apr 1, 2015 at 5:00 PM


Visibility: N/A

Pressure: 29.77 "Hg

Humidity: 75%

Dew point: 77 °F

Location of DoualaLocation

Historic Weather in Douala — Graph

°F

Douala temperature yesterday

Maximum temperature yesterday: 90 °F (at 3:00 PM)
Minimum temperature yesterday: 75 °F (at 4:00 AM)
Average temperature yesterday: 80 °F

Past Weeks' High & Low Weather Summary

 TemperatureHumidityPressure
High93 °F (Mar 18, 3:00 PM)100% (Mar 18, 2:00 AM)30.01 "Hg (Mar 18, 2:00 AM)
Low68 °F (Mar 20, 6:00 AM)56% (Mar 18, 3:00 PM)29.68 "Hg (Mar 18, 4:00 PM)
Average82 °F85%29.82 "Hg
* Reported Mar 17 5:00 PM — Apr 1 5:00 PM, Douala, Weather by CustomWeather, © 2015

Note: Actual official high and low records may vary slightly from our data, if they occured in-between our weather recording intervals... More about our weather records

Advertising

Douala weather history for previous 24 hours

 ConditionsComfort  
Time TempWeatherWind HumidityBarometerVisibility
5:00 PM
Wed, Apr 1
86 °FPartly sunny.12 mph75%29.77 "HgN/A
4:00 PM88 °FScattered clouds.12 mph66%29.77 "HgN/A
3:00 PM90 °FScattered clouds.12 mph63%29.80 "HgN/A
2:00 PM90 °FPartly sunny.9 mph67%29.83 "HgN/A
1:00 PM90 °FPartly sunny.9 mph67%29.86 "HgN/A
12:00 PM90 °FPartly sunny.7 mph71%29.89 "HgN/A
11:00 AM88 °FPartly sunny.No wind75%29.92 "HgN/A
10:00 AM86 °FPartly sunny.No wind75%29.92 "HgN/A
9:00 AM84 °FPartly sunny.2 mph79%29.92 "Hg5 mi
8:00 AM81 °FFog.5 mph89%29.89 "Hg3 mi
7:00 AM77 °FFog.No wind100%29.86 "Hg3 mi
6:00 AM77 °FPassing clouds.No wind94%29.83 "HgN/A
5:00 AM77 °FPassing clouds.No wind100%29.80 "HgN/A
4:00 AM79 °FPassing clouds.5 mph94%29.80 "HgN/A
3:00 AM79 °FPassing clouds.No wind94%29.80 "HgN/A
2:00 AM77 °FPassing clouds.No wind100%29.80 "HgN/A
1:00 AM77 °FPassing clouds.5 mph100%29.83 "HgN/A
12:00 AM77 °FPassing clouds.No wind100%29.86 "HgN/A
11:00 PM
Tue, Mar 31
77 °FPassing clouds.No wind100%29.86 "HgN/A
10:00 PM79 °FPassing clouds.No wind94%29.86 "HgN/A
9:00 PM79 °FPassing clouds.No wind94%29.83 "HgN/A
8:00 PM81 °FPassing clouds.5 mph89%29.83 "HgN/A
7:00 PM82 °FPassing clouds.7 mph84%29.80 "HgN/A
6:00 PM82 °FScattered clouds.5 mph84%29.77 "HgN/A
Weather by CustomWeather, © 2015

See weather overviewHow to use our weather pages